Wind_Speed
10 10 10 13 12 12 17 11 8 7 8 11 6 6 2 5 8 7 14 17 18 17 20 22 21 21 21 21 22 24 26 28 31 34 38 39 42 41
12 8 10 11 10 12 11 11 9 10 7 17 17 12 3 6 9 7 12 15 17 21 20 22 20 17 17 18 21 23 26 27 28 30 35 38 42 41
8 8 9 8 9 11 11 12 13 14 12 17 12 9 7 6 8 8 8 12 15 21 19 16 14 12 13 14 15 17 21 25 27 28 29 36 39 41
10 9 8 8 8 11 13 12 12 15 14 14 15 14 6 6 8 10 9 3 8 8 4 12 4 12 13 12 13 15 15 19 23 24 27 28 33 39
14 12 13 12 11 12 13 13 14 14 13 15 17 12 10 8 7 9 5 8 1 7 8 2 8 13 11 12 15 17 19 20 21 23 23 24 25 31
13 15 15 14 13 14 14 16 14 13 14 13 15 20 14 3 4 5 5 5 6 6 8 7 3 7 11 12 16 16 18 19 21 23 23 23 26 28
16 15 19 17 19 17 14 14 14 14 12 11 10 10 11 9 9 5 4 3 5 8 8 4 5 5 8 11 4 7 10 10 16 21 24 25 26 27
17 16 16 18 17 21 24 25 24 17 15 13 9 7 7 8 6 9 10 11 6 11 9 10 13 12 9 8 18 14 10 10 14 16 18 27 29 29
17 17 17 17 16 16 16 17 19 20 19 16 13 8 5 3 5 6 5 6 7 7 10 12 10 12 16 16 6 18 23 17 14 14 17 17 21 32
20 18 17 18 19 16 15 15 15 14 15 10 9 6 5 4 6 6 5 6 8 7 4 8 7 11 14 13 17 21 18 13 20 21 14 14 16 18
16 21 16 16 15 14 13 13 13 13 12 15 12 9 10 6 4 6 6 7 9 4 1 7 9 13 13 13 11 14 19 22 22 21 18 20 15 15
12 14 20 21 19 17 15 15 13 10 12 10 8 8 10 9 10 7 13 14 15 8 5 7 10 8 6 5 13 14 14 13 16 23 21 16 17 14
13 13 14 16 20 18 15 14 14 12 9 9 10 12 13 14 15 13 13 11 11 8 6 7 7 11 6 9 11 11 14 12 13 13 14 17 18 14
14 13 12 11 8 18 18 17 18 16 11 7 12 13 13 14 11 8 10 10 8 7 5 4 0 3 4 6 7 12 13 6 11 11 5 6 8 9
10 8 8 11 11 11 12 14 16 17 16 14 14 13 4 5 5 9 7 7 5 4 3 2 2 3 5 7 8 11 7 5 6 9 12 11 11 9
8 8 8 8 9 12 14 15 14 15 14 15 18 16 14 15 17 14 16 17 16 9 9 6 5 7 9 12 13 15 8 7 6 4 8 9 11 11
15 10 12 13 14 15 16 16 17 18 17 17 19 22 20 22 21 21 22 22 19 17 11 2 8 12 18 19 22 18 14 13 13 4 6 12 14 12
13 12 12 13 13 14 16 18 18 19 19 18 18 18 17 17 13 17 20 18 17 17 16 19 18 18 18 19 16 14 17 17 19 20 20 19 14 11
9 12 11 13 14 16 16 17 16 15 15 16 17 18 19 19 20 19 20 17 14 13 16 18 19 13 9 8 17 16 19 18 22 19 19 21 17 13
7 12 12 12 13 15 15 15 15 15 16 16 17 17 17 17 17 18 19 21 22 21 22 20 13 13 14 14 15 21 23 21 15 17 19 21 22 23
10 11 12 13 14 14 14 13 14 14 14 16 17 17 17 18 20 22 23 26 23 18 18 18 19 17 15 15 15 16 18 19 8 11 17 19 21 21
9 10 11 12 13 12 13 13 14 15 15 16 17 17 17 18 17 20 20 21 21 19 18 21 18 17 17 17 15 17 18 21 22 23 23 24 21 15
8 9 11 12 11 12 12 13 14 14 15 15 17 17 17 14 16 18 20 20 21 19 18 20 20 19 18 15 15 19 22 24 26 26 25 21 25 20
Wind_Direction
297 281 276 291 290 285 295 304 308 304 307 322 320 259 225 311 294 243 236 239 238 236 226 222 227 227 231 236 241 244 245 242 237 232 228 225 220 225
302 321 301 297 283 274 276 288 306 290 281 306 299 310 7 307 283 264 259 249 239 236 224 220 221 229 232 239 243 247 248 245 246 243 240 231 230 230
303 290 286 293 271 278 289 281 282 274 268 270 284 333 345 311 302 301 279 253 256 235 220 226 232 233 239 242 250 253 249 245 244 245 247 238 237 233
330 327 321 313 299 298 290 284 271 269 286 300 292 288 276 313 292 294 293 297 356 24 332 201 262 264 246 248 260 267 259 252 247 248 245 245 248 235
22 16 12 2 347 327 318 302 300 294 286 267 278 277 270 274 284 277 300 317 28 48 59 222 222 252 252 261 263 261 264 259 251 250 251 253 249 239
30 29 31 16 4 350 330 322 322 311 301 302 294 301 291 192 285 304 278 14 34 68 105 92 285 292 289 284 275 270 265 261 260 258 255 252 251 248
47 45 36 32 32 26 19 2 352 340 334 327 329 332 28 40 29 3 10 339 12 23 27 11 312 346 339 354 271 312 291 277 266 264 261 258 252 251
45 42 44 38 32 31 38 40 41 30 22 24 23 30 27 43 35 5 345 330 319 334 352 323 297 291 346 12 31 23 355 309 287 280 276 260 251 252
44 40 34 27 27 25 32 34 34 35 42 42 46 43 41 18 341 341 346 322 313 321 328 303 310 299 290 290 312 354 5 2 345 299 278 277 267 249
45 36 35 31 31 29 25 28 28 28 30 25 22 17 6 335 305 330 327 302 289 282 278 299 326 318 310 313 297 302 304 349 358 4 338 295 274 267
49 36 37 30 27 31 21 22 28 35 16 31 38 43 41 26 341 333 332 321 312 348 7 304 346 326 322 317 335 319 288 283 292 320 351 6 344 279
56 48 41 41 37 42 31 22 16 10 359 7 13 5 358 344 356 336 322 331 344 339 31 328 337 350 326 332 342 334 326 314 292 286 291 318 346 3
46 41 29 43 42 36 33 21 358 338 21 28 26 22 16 12 9 8 4 1 350 349 360 345 346 6 337 324 332 5 349 321 313 311 305 301 291 315
49 49 42 38 46 46 35 29 17 13 12 48 22 14 5 9 17 7 19 28 29 18 6 346 224 3 354 326 331 328 356 343 345 346 351 295 309 311
58 56 37 36 23 17 21 22 23 18 10 6 3 5 330 344 325 319 275 324 327 313 256 250 296 282 287 266 275 300 287 297 359 17 7 338 319 315
1 336 6 359 4 3 4 9 4 7 355 358 346 350 346 344 352 340 337 331 321 296 247 244 266 267 306 279 309 308 282 284 264 299 344 342 330 338
337 346 6 5 4 4 1 0 357 356 3 345 347 342 347 347 347 338 335 340 329 0 12 353 314 303 305 312 295 306 336 329 328 339 320 321 312 294
327 6 4 3 4 358 355 354 354 353 352 338 340 335 339 329 321 324 333 332 334 333 333 329 323 317 316 315 332 333 339 331 328 326 315 306 302 304
334 16 4 0 358 358 355 352 353 358 352 349 343 342 341 338 337 335 322 332 322 323 310 304 310 309 311 316 316 320 307 297 304 306 321 322 312 309
350 4 1 358 357 355 353 350 352 347 350 346 341 344 339 336 334 335 333 344 342 328 327 335 25 349 333 316 319 310 304 321 306 312 315 320 316 311
14 360 358 351 352 350 349 346 340 347 346 342 342 337 334 347 353 346 341 338 332 329 322 328 323 319 309 308 303 311 303 317 304 323 314 309 305 307
3 354 352 347 343 345 343 342 341 345 347 343 342 332 356 345 342 334 331 324 322 319 303 298 312 331 334 332 334 331 324 326 328 326 322 303 287 299
349 353 341 341 339 343 341 341 344 344 345 342 337 346 338 337 335 328 323 319 319 327 327 329 323 325 327 323 318 318 323 324 320 324 319 315 331 330
Height
814 813 814 812 811 810 808 805 804 804 798 795 796 795 797 800 800 800 800 800 801 801 802 805 808 809 812 815 817 818 820 821 822 824 826 830 833 835
813 812 813 812 811 811 809 808 806 806 806 804 799 797 797 799 799 798 797 796 797 796 796 799 801 805 808 811 812 813 814 816 817 819 820 823 825 829
813 812 812 812 812 810 809 809 808 807 806 799 797 797 799 799 798 797 795 793 790 792 791 802 803 803 806 808 809 809 808 809 810 813 814 816 819 821
812 812 812 812 811 810 809 807 805 803 801 799 798 798 797 798 798 797 795 792 788 787 792 788 798 798 802 804 805 807 805 804 805 806 807 808 811 812
814 814 813 812 810 809 806 804 802 801 800 799 797 794 795 797 796 795 795 795 793 791 793 797 795 796 798 800 802 803 803 800 799 800 801 803 802 805
816 816 815 814 812 810 808 805 802 800 798 797 796 796 793 792 796 796 795 796 794 793 792 791 796 798 799 797 797 797 797 796 795 795 796 797 798 799
820 819 819 816 814 810 808 805 803 800 799 797 796 795 795 794 797 797 796 798 797 796 792 793 796 800 800 795 795 793 792 790 791 791 791 792 793 794
823 821 820 819 817 814 812 809 806 803 802 801 801 800 801 802 801 802 801 800 797 795 793 794 796 795 795 793 793 790 788 787 786 786 786 786 787 788
827 826 824 822 819 817 815 814 810 809 807 806 806 805 805 804 804 804 802 802 800 798 797 796 795 792 793 791 790 787 785 783 783 782 781 781 780 781
831 830 828 826 822 820 818 815 813 811 809 809 809 808 807 806 805 804 803 801 798 796 796 794 793 791 790 787 787 786 785 782 785 782 778 777 776 776
834 833 831 829 826 822 820 818 816 814 811 811 809 808 808 807 806 805 802 800 795 794 795 795 792 791 788 785 784 783 781 781 782 782 780 777 774 772
836 836 834 831 828 825 823 820 818 816 814 812 811 810 809 809 806 806 803 800 798 794 796 796 793 792 788 786 786 784 782 780 779 779 779 777 776 773
836 837 838 835 833 829 826 823 820 816 815 814 812 811 809 808 808 807 805 802 800 798 798 797 795 793 792 788 786 784 782 780 778 776 774 774 774 774
841 841 839 835 833 832 830 826 822 816 814 812 813 812 811 810 809 808 805 803 800 798 796 794 793 793 792 789 787 784 782 781 778 777 773 773 772 771
843 841 838 835 833 831 829 826 824 822 819 815 812 810 809 808 807 805 801 799 797 796 795 793 791 790 790 788 786 782 780 779 777 776 774 772 771 769
842 840 839 836 834 832 829 827 825 823 821 819 815 811 809 806 805 803 800 797 794 791 791 792 792 792 789 784 781 777 774 774 772 772 772 771 770 767
842 839 838 837 834 833 831 829 827 825 824 821 819 816 812 810 808 805 801 799 795 794 794 793 792 792 790 787 782 776 773 771 770 770 772 770 766 765
842 839 839 838 836 834 832 830 829 827 826 824 820 816 814 811 809 806 804 802 800 796 795 793 789 788 785 783 781 778 776 776 774 772 769 766 762 762
841 840 841 840 839 838 835 833 831 830 829 827 823 819 816 812 809 806 803 799 798 796 794 791 787 785 784 781 780 779 778 775 772 768 765 762 759 759
843 842 842 841 840 839 837 835 833 830 829 828 825 821 818 815 810 807 804 801 798 795 793 791 789 788 786 783 780 778 774 772 770 768 765 761 760 758
844 844 844 843 841 840 838 836 834 831 830 828 825 823 818 815 813 812 810 807 803 799 794 791 788 786 783 781 777 773 771 769 768 766 763 761 758 754
845 845 844 844 842 841 839 836 833 831 829 828 826 823 820 819 817 815 811 807 803 799 795 791 787 784 782 779 776 774 770 768 765 764 762 760 756 752
845 846 845 844 842 840 839 836 834 832 830 829 826 823 823 820 819 815 810 806 801 797 793 790 786 783 780 778 776 772 770 767 765 762 758 757 756 754